Regional Weather Roundup
Issued by NWS

Home | Current Version | Previous Version | Text Only | Print | Product List | Glossary Off
Versions: 1 2 3 4 5 6 7 8 9 10 11 12 13 14 15 16 17 18 19 20 21 22 23 24 25 26 27 28 29 30 31 32 33 34 35 36 37 38 39 40 41 42 43 44 45 46 47 48 49 50

000
ASUS43 KLSX 011259
RWRMO

WEATHER SUMMARY FOR MISSOURI
NATIONAL WEATHER SERVICE SPRINGFIELD MO
800 AM CDT MON SEP 01 2014

NOTE: "FAIR" INDICATES FEW OR NO CLOUDS BELOW 12,000 FEET WITH NO
       SIGNIFICANT WEATHER AND/OR OBSTRUCTIONS TO VISIBILITY.
       CURRENT SKY AND/OR WEATHER CONDITIONS ARE NOT AVAILABLE FOR
       CHILLICOTHE AND FARMINGTON.

MOZ001>031-035>038-043-044-053-054-011400-
...NORTHERN AND WESTERN MISSOURI...

CITY           SKY/WX    TMP DP  RH WIND       PRES   REMARKS
KANSAS CTY INT CLOUDY    68  64  87 SW12      29.84R
KANSAS C DTWN  CLOUDY    68  64  87 SW12      29.83R
ST JOSEPH      CLOUDY    67  65  93 W6        29.84R
CHILLICOTHE      N/A     67  66  97 VRB3      29.83R
KIRKSVILLE     CLOUDY    67  64  90 W7        29.81R

$$
MOZ066>068-077>081-088>096-101>105-011400-
...SOUTHWEST MISSOURI...

CITY           SKY/WX    TMP DP  RH WIND       PRES   REMARKS
SPRINGFIELD    LGT RAIN  66  62  87 E10       30.01R
JOPLIN         CLOUDY    65  63  93 E12       30.00R

$$
MOZ032>034-039>042-045>050-055>058-069>072-011400-
...CENTRAL MISSOURI...

CITY           SKY/WX    TMP DP  RH WIND       PRES   REMARKS
COLUMBIA       LGT RAIN  66  64  93 S22G31    29.76F
JEFFERSON CITY CLOUDY    67  64  90 S10       29.84F
ROLLA          LGT RAIN  65  63  93 SE14      29.93F
SEDALIA        CLOUDY    68  62  81 S8        29.81R
OSAGE BEACH    CLOUDY    66  63  88 S14       29.91F

$$
MOZ051-052-059>065-011400-
...EAST CENTRAL MISSOURI...

CITY           SKY/WX    TMP DP  RH WIND       PRES   REMARKS
ST LOUIS INTL  CLOUDY    76  64  66 W14G21    29.92R
SPIRIT OF STL  LGT RAIN  71  64  78 SW10      29.91F
ST CHARLES     CLOUDY    74  63  68 SW9       29.89F

$$
MOZ072>076-082>087-097>100-106>115-011400-
...SOUTH CENTRAL AND SOUTHEAST MISSOURI...

CITY           SKY/WX    TMP DP  RH WIND       PRES   REMARKS
CAPE GIRARDEAU PTSUNNY   76  73  91 SW13G23   29.98S
FARMINGTON     CLOUDY    75  70  83 W16G26    30.01R
POPLAR BLUFF   CLOUDY    75  71  87 S9        29.99S
WEST PLAINS    CLOUDY    67  62  84 NE9       30.04F

$$



USA.gov is the U.S. government's official web portal to all federal, state and local government web resources and services.